Regional Weather Roundup
Issued by NWS

Home | Current Version | Previous Version | Graphics & Text | Print | Product List | Glossary On
Versions: 1 2 3 4 5 6 7 8 9 10 11 12 13 14 15 16 17 18 19 20 21 22 23 24 25 26 27 28 29 30 31 32 33 34 35 36 37 38 39 40 41 42 43 44 45 46 47 48 49 50
000
ASUS43 KDMX 030008
RWRIA

WEATHER ROUNDUP FOR IOWA
NATIONAL WEATHER SERVICE DES MOINES IA
700 PM CDT MON MAY 02 2016

NOTE: "FAIR" INDICATES FEW OR NO CLOUDS BELOW 12,000 FEET WITH NO
SIGNIFICANT WEATHER AND/OR OBSTRUCTIONS TO VISIBILITY.

* - THESE STATIONS ARE NOT NWS STATIONS...THUS NOT UNDER NWS
QUALITY CONTROL.  THEY ALSO DO NOT REPORT WEATHER SUCH
AS PRECIPITATION OR FOG.

IAZ001>003-012>014-020>022-031>034-043>046-030100-
   NORTHWEST IOWA

CITY           SKY/WX    TMP DP  RH WIND       PRES   REMARKS
CARROLL *      MOSUNNY   59  45  58 E7        30.04S
CHEROKEE *     MOSUNNY   61  36  39 CALM      30.03F
DENISON *      MOSUNNY   61  37  41 NW6       30.02S
LE MARS *      PTSUNNY   61  41  48 CALM      30.04S
ORANGE CITY *  SUNNY     61  39  44 SW5       30.03F
SHELDON *      SUNNY     61  36  39 SW3       30.01F
SIOUX CITY     PTSUNNY   65  39  38 CALM      30.03F
6HR MIN TEMP:  62; 6HR MAX TEMP:  67;

SPENCER        MOSUNNY   61  35  37 SW3       30.03S
6HR MIN TEMP:  58; 6HR MAX TEMP:  63;

STORM LAKE *   SUNNY     59  37  44 W7        30.04S
$$

IAZ055>058-069>071-079>083-090>094-030100-
   SOUTHWEST IOWA

CITY           SKY/WX    TMP DP  RH WIND       PRES   REMARKS
ATLANTIC *     MOSUNNY   59  39  47 CALM      30.05S
AUDUBON *      MOSUNNY   63  39  42 CALM      30.05S
CLARINDA *       N/A    N/A N/A N/A MISG        N/A
COUNCIL BLFS * MOSUNNY   61  39  44 SW5       30.05S
CRESTON *      CLOUDY    61  39  44 N5        30.06S
HARLAN  *      MOSUNNY   61  37  41 CALM      30.08S
LAMONI         CLOUDY    58  44  60 NE6       30.05S
6HR MIN TEMP:  57; 6HR MAX TEMP:  62;

SHENANDOAH *   CLOUDY    61  43  51 NE3       30.06S
$$

IAZ047>049-059>061-072>074-084-030100-
   CENTRAL IOWA

CITY           SKY/WX    TMP DP  RH WIND       PRES   REMARKS
AMES           PTSUNNY   59  41  51 CALM      30.04S
6HR MIN TEMP:  59; 6HR MAX TEMP:  62;

ANKENY *       MOSUNNY   59  45  58 E8        30.04S
BOONE *        CLOUDY    59  37  44 CALM      30.03F
CHARITON *     CLOUDY    57  45  62 E5        30.05S
DES MOINES     MOSUNNY   60  37  42 E6        30.04S
6HR MIN TEMP:  60; 6HR MAX TEMP:  65; 6HR PCP: TRACE;

GRINNELL*      MOSUNNY   57  43  58 E3        30.05S
KNOXVILLE *    MOSUNNY   57  43  58 CALM      30.04R
MARSHALLTOWN   PTSUNNY   60  40  47 CALM      30.03S
6HR MIN TEMP:  59; 6HR MAX TEMP:  61;

NEWTON *       CLOUDY    57  43  58 E3        30.04S
$$

IAZ004>006-015-016-023>025-035-036-030100-
   NORTH CENTRAL IOWA

CITY           SKY/WX    TMP DP  RH WIND       PRES   REMARKS
ALGONA *       MOSUNNY   63  37  39 W5        30.03S
CLARION *      MOSUNNY   61  37  41 CALM      30.04S
ESTHERVILLE    SUNNY     60  37  42 CALM      30.02F
6HR MIN TEMP:  57; 6HR MAX TEMP:  63;

FORT DODGE *   MOSUNNY   61  41  48 S5        30.04S
MASON CITY     SUNNY     60  39  45 SW6       30.04S
6HR MIN TEMP:  59; 6HR MAX TEMP:  63;

FOREST CITY *  PTSUNNY   59  41  51 SE7       30.03S
WEBSTER CITY * PTSUNNY   61  41  48 CALM      30.02S
IOWA FALLS *     N/A     59  41  51 CALM      30.05S
$$

IAZ007>011-017>019-026>030-037>042-050>054-066-030100-
   NORTHEAST IOWA

CITY           SKY/WX    TMP DP  RH WIND       PRES   REMARKS
CEDAR RAPIDS   CLOUDY    57  43  59 S3        30.03S
6HR MIN TEMP:  56; 6HR MAX TEMP:  60;

CHARLES CITY * MOSUNNY   61  36  39 CALM      30.04S
CLINTON *      CLOUDY    57  44  62 CALM      30.03F
DECORAH *      CLOUDY    59  36  41 CALM      30.02S
DUBUQUE        PTSUNNY   58  39  49 CALM      30.03S
6HR MIN TEMP:  56; 6HR MAX TEMP:  62;

MONTICELLO *   CLOUDY    59  39  47 CALM      30.03S
OELWEIN *      MOSUNNY   59  37  44 SE3       30.04S
WATERLOO       CLOUDY    59  37  44 W3        30.03S
6HR MIN TEMP:  59; 6HR MAX TEMP:  64;

$$

IAZ064-065-067-068-078-030100-
   EAST CENTRAL IOWA

CITY           SKY/WX    TMP DP  RH WIND       PRES   REMARKS
DAVENPORT      CLOUDY    57  44  62 CALM      30.03S
6HR MIN TEMP:  57; 6HR MAX TEMP:  61;

IOWA CITY      CLOUDY    55  46  71 W3        30.05S
6HR MIN TEMP:  55; 6HR MAX TEMP:  59;

MT. PLEASANT * CLOUDY    56  48  73 W3        30.05R
MUSCATINE *    CLOUDY    57  41  54 CALM      30.04S
QUAD CITIES    CLOUDY    58  43  57 CALM      30.02S
6HR MIN TEMP:  58; 6HR MAX TEMP:  61;

$$

IAZ062-063-075>077-085>089-095>099-030100-
   SOUTHEAST IOWA

CITY           SKY/WX    TMP DP  RH WIND       PRES   REMARKS
BURLINGTON     CLOUDY    56  44  64 CALM      30.03S
6HR MIN TEMP:  52; 6HR MAX TEMP:  57; 6HR PCP: TRACE;

FAIRFIELD *    CLOUDY    54  45  71 CALM      30.05S
FORT MADISON * PTSUNNY   55  46  71 CALM      30.05S
KEOKUK *       CLOUDY    55  46  71 CALM      30.04S
OSKALOOSA *    CLOUDY    54  45  71 SE5       30.05S
OTTUMWA        CLOUDY    54  46  74 N5        30.05S
6HR MIN TEMP:  52; 6HR MAX TEMP:  57; 6HR PCP:  0.04;

WASHINGTON *   CLOUDY    54  52  94 NW3       30.06S
$$

ABBREVIATIONS USED IN REMARKS
   TC - TEMPERATURES IN CELSIUS
  WCI - WIND CHILL INDEX
   HX - HEAT INDEX
  VSB - VISIBILITY
$$




USA.gov is the U.S. government's official web portal to all federal, state and local government web resources and services.